Theta_e
350 349 348 348 348 349 350 350 350 350 351 352 351 348 347 348 349 350 351 352 353 353 354 353 352 352 351 350 349 348 347 347 345 343 342 345 348 349 351 352 353 352 352 351 351 352 351 351 351 351 351 350 350 350 348 346 349 350 350 350 350 351 351 351 351 350 350 350 350 350 351 350 351 350 349 348 347 345 345 345 345 346 347 347 347
349 348 349 348 348 349 349 349 349 350 350 352 351 349 348 347 348 349 350 352 353 353 353 353 352 351 349 348 346 346 348 349 348 346 344 346 348 350 351 352 353 351 352 351 350 351 351 351 351 352 352 351 351 351 350 348 349 349 349 350 351 351 351 351 351 350 350 351 351 351 351 350 350 350 350 349 347 346 345 346 346 346 347 346 346
348 349 348 347 349 348 348 348 349 350 350 350 350 349 349 348 348 348 350 352 352 352 353 353 352 350 347 346 346 347 349 350 350 348 346 346 348 350 351 352 353 351 351 351 350 351 350 351 351 352 352 352 352 352 352 351 350 348 348 350 350 350 350 351 351 350 350 351 351 350 350 350 350 349 349 349 347 346 347 347 348 348 347 347 347
347 348 347 348 348 347 347 347 348 348 349 349 349 350 349 348 348 349 351 351 352 352 352 352 352 351 349 348 349 350 350 350 350 350 349 349 349 350 350 352 352 351 351 350 349 350 350 351 352 352 352 351 352 353 353 352 352 350 349 349 348 349 350 351 350 350 351 351 349 349 349 349 349 349 349 348 347 346 347 347 348 348 348 348 348
347 347 347 347 347 348 347 348 348 348 349 349 350 350 349 349 349 349 351 352 353 352 351 352 352 352 351 350 349 351 351 350 350 350 350 351 351 351 350 351 351 351 351 351 350 350 350 351 352 352 352 352 352 352 352 352 353 352 351 349 348 349 350 351 350 350 351 349 348 347 348 348 349 349 348 347 346 345 345 345 346 346 346 347 347
346 347 347 347 347 348 348 349 350 350 350 349 350 350 350 351 351 351 352 353 352 349 350 352 352 352 350 349 350 352 352 350 351 351 351 351 352 351 350 350 351 352 352 351 351 352 351 351 352 352 351 352 352 351 351 351 351 352 352 350 350 350 350 351 351 350 349 348 347 347 347 348 349 349 347 346 346 345 344 344 343 343 343 343 343
345 347 349 349 349 349 349 350 350 350 349 349 349 349 351 352 352 353 353 353 349 347 351 352 352 351 349 349 350 352 351 351 351 351 352 352 352 352 351 351 351 352 352 351 352 352 351 351 352 352 352 352 352 351 351 351 351 352 352 351 351 350 349 349 349 349 348 348 347 347 348 348 348 347 346 345 345 344 345 344 344 343 342 342 342
346 348 350 349 349 349 350 350 349 349 349 349 349 349 351 352 353 353 352 352 349 348 350 350 350 351 350 351 351 351 351 351 349 350 353 352 352 352 352 352 352 353 352 353 352 352 351 351 352 352 352 352 351 351 351 351 351 351 351 350 350 349 348 348 347 347 347 347 347 347 348 348 347 347 345 344 344 344 344 344 344 343 343 344 343
348 349 349 349 348 348 349 349 349 349 349 349 350 350 351 352 353 352 351 352 350 348 349 349 349 351 351 351 350 350 350 350 350 351 353 352 352 352 352 352 352 353 352 353 352 353 352 351 351 352 353 351 351 351 351 351 351 350 350 350 349 348 347 346 346 345 346 346 346 347 347 347 347 347 347 345 344 342 343 342 342 344 344 345 344
350 349 348 348 348 348 349 350 350 349 350 350 351 351 352 353 351 352 352 351 350 349 349 349 349 350 350 349 349 350 350 349 351 352 353 353 352 352 352 352 353 352 351 352 352 353 352 352 352 353 352 351 351 351 351 351 351 351 350 350 349 347 345 344 344 344 345 345 346 346 347 347 346 346 346 345 343 342 342 343 343 345 345 345 346
349 348 347 347 348 349 349 351 350 350 350 350 351 352 353 351 349 351 353 351 350 350 349 348 350 350 349 349 349 349 349 348 349 352 353 352 351 350 351 352 352 351 351 351 352 352 352 352 352 352 351 351 352 352 352 352 352 352 351 350 348 344 343 342 343 343 344 344 345 346 347 347 346 346 346 344 344 344 345 345 346 346 345 346 346
347 347 346 347 349 350 350 351 350 349 349 350 351 352 352 350 350 350 351 351 350 351 349 348 350 350 349 349 348 349 348 348 349 352 352 351 349 349 350 351 352 351 351 351 351 351 352 352 352 352 351 351 352 351 351 352 351 351 350 350 346 342 341 340 340 341 342 343 345 346 347 347 347 346 346 345 345 346 346 346 346 345 346 346 346
347 346 347 349 351 351 350 350 349 349 349 349 349 351 352 349 349 349 349 350 351 351 350 350 350 349 350 349 348 348 347 349 350 351 351 349 348 348 349 350 351 350 350 350 350 349 348 350 352 352 351 352 352 350 350 351 351 350 350 350 347 344 343 341 339 339 339 341 343 344 345 345 345 345 346 344 345 345 345 345 345 345 346 345 346
347 347 348 350 351 351 350 349 348 349 349 349 348 349 352 349 348 349 348 349 350 351 350 350 349 349 349 348 349 348 348 350 350 350 350 349 348 348 348 349 348 348 348 349 349 347 346 349 352 351 350 351 352 351 350 352 352 351 351 350 349 347 346 345 342 340 338 339 340 340 341 342 343 344 345 344 344 344 344 344 344 344 344 343 344
347 348 349 350 350 350 350 349 349 349 348 349 349 348 350 350 348 348 349 349 349 350 350 349 348 349 349 348 349 350 351 351 350 350 350 350 349 348 347 347 347 347 347 348 349 349 350 350 349 348 348 350 352 352 351 352 351 351 351 351 350 349 347 346 345 342 339 337 338 338 338 340 343 344 344 344 344 344 345 345 344 344 344 345 344
348 349 350 350 350 350 351 350 349 349 349 350 350 349 351 351 348 348 350 350 349 350 350 349 349 350 349 349 351 352 351 350 350 349 350 349 348 347 346 345 346 346 346 346 348 349 349 346 344 344 345 348 352 352 351 350 349 350 350 350 350 349 347 346 346 343 339 337 336 336 336 337 340 344 345 345 347 346 345 345 343 343 344 344 345
349 349 350 350 350 350 351 350 350 350 351 351 351 350 351 351 348 348 350 350 350 349 349 349 349 350 350 349 351 352 350 349 349 348 349 348 347 347 346 345 344 344 343 343 344 346 345 342 340 340 344 348 350 350 349 349 349 349 349 348 349 349 348 346 346 345 341 336 336 336 335 334 335 340 342 342 344 343 343 342 342 343 344 344 345
350 350 350 351 351 351 351 350 351 351 351 350 350 350 351 350 348 348 350 350 350 349 348 348 348 349 350 350 350 350 349 348 347 348 348 347 346 346 346 345 343 342 341 341 342 342 341 340 338 338 344 348 348 348 348 348 348 347 348 348 348 349 349 347 346 346 344 339 335 334 334 332 331 336 340 338 340 342 342 344 344 345 344 342 343
350 350 350 351 351 351 350 351 351 350 350 350 350 351 351 351 349 348 350 350 350 350 349 349 349 349 349 350 350 350 349 347 346 347 347 346 346 345 345 344 342 342 340 340 340 338 339 339 337 337 343 348 348 347 347 346 347 347 347 346 347 349 351 350 348 346 345 342 336 332 332 330 331 339 342 340 341 343 343 344 343 342 342 341 341
351 350 351 352 351 350 350 350 350 350 350 350 350 351 350 351 350 348 349 349 349 350 350 349 349 349 349 350 350 350 349 348 346 346 346 346 346 346 345 342 341 341 339 338 337 336 337 337 336 336 341 346 347 346 345 345 346 346 346 346 348 351 352 352 351 348 345 344 336 331 332 330 334 340 342 341 342 344 343 343 342 342 343 343 343
351 351 351 351 350 349 349 349 349 350 350 350 350 350 350 350 351 350 349 349 349 350 349 349 349 348 348 349 349 349 349 348 347 346 347 347 347 347 345 341 341 340 336 334 334 333 334 334 334 335 339 343 345 345 344 345 345 346 346 345 347 349 351 351 350 348 345 344 337 333 334 332 336 340 342 342 343 345 345 345 345 344 345 344 344
350 351 351 349 349 348 348 348 349 350 350 350 350 350 351 351 351 351 350 349 350 349 349 349 348 348 347 347 349 349 348 347 346 346 347 347 347 346 344 342 343 341 336 333 333 332 333 332 333 334 337 340 342 343 343 344 345 345 344 342 344 347 349 348 346 346 345 344 337 335 336 335 338 341 343 344 343 345 345 346 347 345 344 344 345
349 349 349 348 348 348 349 348 349 350 350 350 350 350 350 350 351 351 350 350 349 347 347 349 348 348 347 347 348 348 347 347 346 347 347 348 348 346 343 342 341 339 336 335 335 335 335 334 334 334 336 338 340 341 341 342 342 342 342 342 345 346 348 346 344 344 344 343 337 335 337 337 340 343 345 345 345 346 345 345 345 344 344 344 346
349 348 348 349 349 349 350 349 349 350 350 351 350 350 351 350 350 350 351 350 349 347 347 348 347 348 347 347 346 346 346 346 346 347 347 346 345 342 341 339 337 337 337 339 340 341 339 337 336 337 337 339 339 340 340 341 342 342 343 344 345 347 347 346 344 343 344 342 336 334 336 338 341 344 346 346 346 346 345 343 343 343 342 346 347
349 348 348 349 349 349 350 349 350 350 350 351 351 351 351 350 350 350 350 350 350 349 349 348 347 346 346 346 345 346 346 346 345 345 344 341 340 339 339 340 341 343 344 345 346 345 342 339 338 339 340 340 341 342 343 343 344 344 344 345 346 347 347 345 343 343 344 341 334 333 335 336 339 342 345 345 343 343 344 345 346 346 344 347 349
349 347 348 350 349 349 350 350 350 350 350 350 350 350 350 350 350 350 349 350 350 349 348 347 347 346 345 345 345 345 345 344 344 343 340 339 339 339 342 344 346 348 348 348 347 346 344 343 343 343 345 345 345 345 345 345 344 344 345 345 346 346 346 344 343 342 342 338 332 332 333 334 335 338 341 342 344 343 343 345 348 349 348 349 350
349 347 348 350 349 349 350 350 350 350 350 350 350 350 350 350 350 349 348 349 348 348 348 347 347 346 345 345 344 344 343 342 341 340 339 339 340 342 345 347 349 350 349 349 347 347 347 346 347 347 348 348 347 346 345 345 344 344 344 344 345 344 344 344 343 341 339 335 331 332 332 333 334 337 340 342 346 346 346 347 348 348 347 347 348
349 348 349 350 349 349 350 350 351 350 350 350 350 349 349 349 349 348 348 348 347 346 346 346 345 344 344 343 343 342 341 340 339 338 338 339 342 345 348 349 350 350 350 349 348 348 348 348 349 349 349 349 348 346 343 343 343 343 343 343 343 343 343 343 342 340 337 334 333 334 334 336 338 340 342 343 345 347 347 347 347 346 345 345 346
349 348 349 350 349 349 349 350 350 349 350 350 349 348 348 348 348 347 347 347 346 344 343 343 342 342 342 341 341 341 340 339 338 338 339 342 346 348 349 350 350 350 350 349 349 349 349 349 349 349 349 349 349 346 342 341 342 342 343 343 342 342 343 343 342 339 337 337 338 339 340 341 343 344 345 345 345 345 346 346 345 345 345 345 345
349 349 349 350 350 349 349 349 349 349 350 350 349 349 348 348 347 348 348 348 346 344 343 344 343 341 341 340 341 341 340 339 338 339 342 346 348 349 349 349 349 349 350 350 350 350 350 349 349 349 349 348 348 346 341 340 341 341 342 342 342 342 342 343 342 339 340 341 343 344 344 344 345 346 346 346 345 345 345 345 345 345 344 345 344
348 348 349 350 350 349 349 349 349 349 349 350 350 349 348 347 348 349 349 349 348 347 346 345 343 341 340 340 340 340 340 339 339 342 346 348 348 349 349 349 350 350 350 350 350 350 349 349 349 348 348 348 348 346 342 340 341 341 341 342 342 342 342 344 344 342 342 343 345 345 345 345 345 345 345 346 345 345 345 345 345 344 344 344 344
348 347 349 350 350 349 348 349 349 349 349 350 350 348 347 347 348 349 350 350 349 347 346 344 343 342 340 340 340 340 340 341 343 346 348 348 348 349 349 350 351 352 351 350 349 348 348 348 348 348 348 348 347 346 344 342 341 341 341 342 342 342 343 343 344 345 344 345 345 345 345 346 346 346 345 345 345 345 345 345 345 344 344 345 345
347 347 348 349 349 348 348 348 349 349 349 349 349 349 348 348 348 349 349 349 348 347 346 346 346 344 341 340 340 340 342 344 347 348 348 348 349 349 349 351 353 353 351 350 349 348 348 347 348 347 348 347 346 344 344 342 341 341 342 342 342 342 343 343 344 345 345 345 345 345 346 346 346 346 346 346 346 346 346 346 345 344 344 345 346
347 347 348 349 348 347 348 348 348 348 348 348 348 348 348 348 348 349 349 349 349 348 348 348 348 348 345 343 342 343 345 347 348 348 348 348 348 349 350 351 353 352 350 349 350 349 348 347 347 347 348 346 345 343 341 341 340 341 341 342 342 342 342 343 343 344 344 345 345 345 346 346 346 346 346 346 347 348 347 347 347 346 345 346 347
347 346 347 347 347 348 348 347 348 347 347 347 347 347 348 349 349 350 350 350 350 349 349 349 349 349 348 348 347 347 348 348 349 349 349 349 348 350 351 352 352 351 350 349 350 349 348 347 347 348 347 345 344 342 340 340 341 341 342 341 342 341 342 343 343 344 344 344 344 344 345 345 345 346 346 346 347 349 349 349 349 348 348 349 351
346 346 346 347 347 347 347 347 347 347 346 346 346 346 348 349 350 351 351 351 349 349 348 348 348 349 349 349 349 348 348 349 349 349 350 350 350 351 352 351 351 351 349 350 350 349 347 347 349 349 347 344 343 343 341 340 341 341 341 341 341 342 342 342 343 343 343 344 344 344 343 344 344 344 345 346 346 347 348 349 349 349 349 350 351
345 345 346 347 347 347 347 346 345 346 346 345 346 346 348 350 350 350 350 349 348 347 348 349 349 348 348 348 348 348 348 349 349 349 350 350 351 352 351 351 351 351 350 351 350 349 348 348 350 350 345 343 343 343 342 340 340 342 343 343 343 343 343 343 343 343 343 344 343 343 343 343 343 343 343 345 345 345 345 346 347 348 349 349 350
345 345 346 347 347 347 347 346 345 345 344 344 345 347 349 350 349 349 349 349 348 347 349 351 349 347 347 347 348 349 349 350 350 349 350 351 352 352 351 352 352 351 351 351 350 349 349 349 350 349 345 343 343 343 343 341 341 343 344 344 344 344 344 344 343 343 343 343 343 342 342 342 342 342 342 343 344 344 343 343 345 347 348 348 349
346 346 347 347 347 348 347 346 346 345 344 343 345 347 349 349 349 349 349 350 349 349 350 352 351 348 347 347 348 350 350 350 349 349 350 351 352 352 352 352 352 351 350 350 349 349 349 349 349 348 346 344 343 343 342 341 342 343 344 343 344 344 343 343 343 343 343 343 342 341 341 342 342 342 343 343 343 343 343 344 345 347 347 347 348
347 347 347 348 348 348 347 347 346 346 345 345 345 347 347 348 349 350 350 350 350 350 350 352 352 350 349 350 350 351 351 350 350 350 350 351 352 352 352 353 353 351 350 350 350 350 349 349 350 348 348 345 344 344 342 342 342 343 342 342 344 344 344 344 344 345 344 344 343 343 343 343 343 343 342 343 343 342 342 343 344 345 346 346 347
348 348 348 348 348 348 348 348 347 347 347 346 347 347 347 348 349 350 350 350 350 351 351 352 352 351 351 351 351 351 351 351 350 350 350 351 352 353 353 354 354 352 351 350 351 352 351 350 350 348 347 346 345 344 342 342 342 343 342 342 344 344 345 346 346 345 344 343 343 343 343 342 342 342 343 343 343 343 342 342 342 343 344 345 346
349 349 348 347 348 348 349 349 349 348 348 348 348 348 348 349 349 349 350 350 350 351 351 351 350 350 349 349 350 350 350 351 351 351 350 350 351 353 354 354 354 353 352 350 351 353 351 350 350 348 347 347 347 345 343 342 343 343 342 343 346 346 344 343 344 344 343 342 342 343 342 342 342 342 342 342 342 342 342 342 342 341 342 342 344
349 349 348 347 348 349 349 349 350 350 349 349 348 348 348 349 349 349 349 349 349 350 351 351 349 349 348 349 350 350 350 351 351 351 350 351 352 352 354 354 354 354 351 350 352 353 352 351 350 348 347 347 348 347 344 343 343 343 345 348 350 352 352 344 341 342 342 342 341 342 342 342 342 342 342 342 342 342 342 342 342 342 342 342 343
348 348 348 348 348 348 350 350 350 350 350 350 349 349 349 349 349 349 348 348 348 349 349 350 349 349 349 350 350 350 351 352 352 352 351 351 352 353 353 354 354 352 350 351 352 353 353 353 350 349 348 347 347 347 346 344 345 344 348 352 348 354 360 349 342 343 342 343 341 341 342 342 342 342 342 342 341 342 341 342 342 342 342 341 342
348 348 348 348 349 349 349 349 350 350 350 350 350 350 350 349 349 349 348 347 348 348 348 349 350 350 352 351 350 350 352 353 352 352 352 352 352 353 353 354 354 352 351 353 353 353 354 354 352 350 349 349 348 347 347 346 346 345 347 351 350 356 360 348 343 344 341 343 342 341 342 342 343 342 342 343 342 342 342 342 342 342 342 342 344
348 349 349 349 350 350 349 349 350 350 350 351 350 350 349 349 349 348 348 348 349 348 348 349 350 351 353 351 349 349 350 353 353 352 352 353 353 354 353 354 353 352 353 354 352 351 354 355 353 351 350 351 349 348 349 348 348 348 347 349 350 353 353 347 347 349 345 343 342 342 344 343 344 343 343 344 344 342 341 342 344 343 344 345 346
348 349 349 350 350 350 349 349 349 350 350 350 350 350 349 349 348 348 347 348 348 347 347 348 350 351 353 352 350 350 350 351 353 353 353 354 354 354 354 354 353 352 354 354 353 352 354 356 354 352 351 352 351 350 350 349 349 349 348 348 347 349 348 347 351 352 352 353 345 342 343 343 345 345 344 345 345 345 344 345 346 345 346 347 347
348 349 349 349 350 350 349 349 349 350 350 350 350 349 349 349 349 348 347 347 347 347 347 349 351 352 353 352 352 352 351 350 351 351 352 353 355 354 355 355 353 353 353 353 353 352 352 355 354 352 353 354 352 352 351 350 349 349 349 348 347 348 346 347 350 349 353 361 356 348 345 343 344 345 345 345 345 346 346 346 345 345 347 348 347
348 348 349 349 350 350 349 348 349 350 350 350 349 349 349 349 349 349 348 348 348 348 349 350 351 353 353 353 353 353 353 352 351 350 351 353 355 355 356 356 355 353 353 353 354 352 351 353 353 352 354 355 353 353 352 351 351 350 350 349 347 348 346 346 349 347 350 358 359 355 349 345 346 345 345 347 346 346 346 346 346 347 348 348 348
348 348 349 349 349 350 349 349 350 350 350 349 349 350 350 350 350 349 349 350 350 350 351 352 352 353 353 353 354 353 353 353 352 351 352 355 356 356 355 355 355 355 354 353 353 352 351 353 353 353 354 355 353 353 353 353 353 351 351 350 348 348 347 347 346 346 346 348 352 351 347 348 350 348 345 347 347 347 347 347 348 348 348 349 349
348 348 349 350 350 349 349 349 350 350 350 350 350 350 350 351 351 350 349 349 349 350 351 351 351 352 352 353 354 353 354 354 353 353 355 356 356 356 355 354 354 355 355 354 352 352 352 353 354 354 354 354 353 353 353 353 353 353 352 351 349 348 347 347 346 345 344 345 350 350 346 347 349 348 347 348 347 347 348 348 349 350 350 351 351
Wind_Speed
11 10 11 11 11 10 9 8 8 8 9 8 8 8 8 9 10 12 13 14 14 13 12 13 13 13 13 14 14 14 15 15 15 15 15 15 15 15 15 15 15 15 15 16 17 17 17 17 16 17 17 17 17 15 15 16 16 16 17 16 16 17 18 18 18 17 15 15 16 15 14 14 15 15 16 15 15 15 15 16 17 17 16 15 15
13 12 11 12 11 10 10 9 9 8 9 9 8 7 8 9 10 11 12 12 12 12 12 12 13 13 13 14 14 14 14 15 15 16 16 15 15 15 15 15 15 15 15 15 16 17 18 17 16 16 16 17 17 17 16 16 15 15 16 16 16 17 17 17 17 17 16 16 15 15 15 14 15 15 15 15 15 15 15 16 17 17 16 15 15
14 14 12 12 11 9 9 9 9 8 9 9 8 6 7 8 10 12 12 12 11 11 12 12 12 13 13 13 14 14 14 14 15 16 16 15 15 15 15 14 15 15 15 15 17 17 17 17 15 14 15 16 17 17 17 17 16 14 14 16 16 16 16 16 16 15 16 16 15 16 15 15 15 15 15 15 16 16 16 16 16 16 16 15 15
15 15 13 12 11 10 9 8 8 7 7 8 8 6 6 8 10 12 11 11 11 11 11 11 11 12 13 12 12 12 13 13 14 15 15 14 14 14 14 14 15 16 15 16 18 17 16 15 14 14 15 16 16 15 15 16 17 16 15 14 15 16 15 15 15 15 15 15 16 16 16 16 15 15 15 15 15 15 15 15 15 15 15 15 15
17 14 13 12 10 9 8 7 6 5 5 6 7 6 6 8 9 11 10 10 11 11 11 11 11 12 13 12 12 12 12 13 13 14 14 14 14 14 14 14 16 17 15 16 17 17 15 14 14 14 14 15 15 14 14 15 17 17 16 15 14 16 15 14 15 15 15 15 16 16 16 16 15 14 14 14 14 14 13 14 14 13 13 13 13
17 14 13 10 9 8 7 7 6 5 5 6 5 5 6 7 8 9 9 9 10 10 12 13 11 12 11 11 12 12 12 13 12 12 13 13 14 15 15 15 16 17 16 16 16 16 14 14 13 13 13 14 14 14 14 14 15 16 17 15 14 14 14 14 14 14 15 15 16 16 16 16 15 14 13 13 12 12 12 12 12 12 12 12 12
16 14 12 10 9 8 7 6 6 6 6 6 6 6 6 7 7 8 9 8 8 9 11 13 12 12 12 11 12 12 12 12 12 11 12 14 14 14 15 15 15 16 15 15 16 15 14 14 13 13 13 13 13 13 14 14 14 15 15 16 15 13 13 13 13 13 14 15 16 16 15 15 14 13 11 11 11 11 11 11 11 11 11 11 11
14 13 11 11 9 8 7 6 6 6 6 6 6 6 6 6 6 7 9 8 7 8 9 11 12 13 13 13 12 12 11 11 12 11 10 13 14 14 14 14 14 14 14 14 14 14 13 13 13 12 12 13 13 13 13 13 13 14 14 15 14 13 13 12 12 12 13 14 15 14 14 13 13 11 10 10 10 10 10 10 10 10 10 10 10
14 12 11 11 9 8 7 7 6 6 6 6 6 6 6 6 6 7 8 8 6 7 9 10 11 12 13 14 14 13 11 10 11 10 9 12 14 14 14 14 14 14 13 13 13 13 13 13 12 11 11 12 12 12 13 12 13 13 13 13 13 13 12 11 10 10 11 12 12 12 12 12 11 11 9 9 9 9 9 9 9 10 9 9 9
14 12 11 9 9 8 7 7 6 6 6 5 5 6 6 6 7 7 7 8 7 7 8 8 10 11 12 14 14 14 12 12 10 9 10 12 13 14 14 14 13 13 13 13 13 13 12 12 12 11 11 11 12 12 12 12 12 12 12 12 12 11 10 10 9 9 10 10 11 11 10 10 10 9 8 8 8 8 8 8 9 9 8 8 8
12 11 10 9 9 7 6 6 6 6 6 6 5 6 7 6 7 8 8 8 8 8 8 8 10 10 11 13 14 14 12 12 11 8 10 11 12 13 14 14 13 13 13 13 13 12 12 11 11 11 10 11 12 11 11 11 11 11 11 11 11 10 9 8 7 8 8 8 9 8 8 8 9 8 7 7 7 7 7 7 7 7 7 7 8
12 11 10 9 8 7 6 6 6 5 5 6 5 5 8 6 6 8 8 7 8 9 9 8 10 10 11 11 12 13 12 11 11 9 10 11 13 13 14 14 13 12 13 13 13 12 12 11 10 9 10 11 11 11 11 10 10 10 10 9 10 10 9 8 6 6 6 6 6 7 7 8 8 7 6 6 6 6 6 6 6 6 6 6 7
12 10 9 9 7 6 6 6 5 4 5 5 5 5 8 7 5 7 9 8 8 10 10 9 9 11 11 10 10 11 11 11 10 10 10 12 13 13 13 12 12 11 11 12 12 12 12 11 9 8 9 11 10 10 11 10 9 9 9 8 8 9 8 7 6 5 4 4 5 6 6 6 6 6 5 4 4 4 4 4 5 5 5 5 5
12 10 10 8 7 6 6 5 5 5 5 5 5 5 8 8 4 6 9 8 8 9 11 10 9 11 12 11 10 11 11 11 11 11 11 12 13 13 12 11 11 10 10 11 11 11 11 9 8 8 9 10 9 9 10 9 8 8 7 7 7 7 7 7 6 5 3 3 4 4 5 5 6 5 4 3 3 3 3 3 3 4 4 4 4
11 10 9 8 7 7 6 5 5 5 5 5 6 5 8 9 5 6 9 9 9 10 10 10 10 10 11 12 11 11 12 11 11 12 12 12 12 12 12 11 11 9 9 9 10 10 8 7 8 8 9 9 8 8 8 8 7 7 6 6 5 5 5 6 6 5 3 2 2 3 3 4 5 4 3 3 3 3 3 3 2 3 3 3 2
10 9 8 8 7 6 6 5 5 5 5 5 5 6 8 10 8 7 9 10 9 10 10 11 12 11 11 12 12 11 12 11 12 12 12 12 12 12 11 11 10 9 8 8 8 8 7 7 8 8 7 7 7 7 7 7 6 5 5 5 4 4 4 5 6 6 4 2 0 1 2 3 4 4 3 3 4 3 3 2 2 3 3 3 2
9 8 8 7 6 6 6 5 5 5 4 4 5 7 8 10 9 8 9 10 9 10 10 11 12 11 10 11 11 11 11 12 12 12 12 12 12 11 10 9 9 9 8 8 7 7 7 7 7 7 6 6 7 7 7 6 4 3 3 3 4 4 4 4 5 6 5 4 2 2 2 2 3 4 4 4 4 4 3 2 1 2 1 2 2
9 8 7 7 6 6 6 5 5 5 4 4 5 7 9 10 9 9 9 11 12 10 10 10 10 11 10 10 11 11 11 11 12 12 12 11 11 10 9 8 7 7 7 7 6 6 7 6 6 6 6 6 7 7 6 4 3 2 1 1 3 4 5 5 5 6 6 5 4 3 3 2 2 3 3 3 3 3 3 2 1 2 1 1 2
9 8 7 7 6 6 6 6 6 6 4 3 5 6 9 11 9 8 9 10 13 12 11 11 11 11 11 11 11 11 11 11 12 12 11 10 10 9 8 7 6 6 5 5 6 6 6 6 5 5 6 6 6 4 3 2 2 1 1 2 4 5 5 6 6 7 6 6 5 4 3 3 2 2 2 2 3 2 2 3 2 2 1 1 1
8 8 7 7 6 6 6 5 6 5 4 4 6 7 9 12 11 8 8 9 12 13 12 12 12 12 11 11 12 12 12 11 11 11 10 9 9 9 8 6 5 5 5 5 5 6 6 5 5 5 5 5 5 3 2 2 2 1 1 3 6 6 7 9 9 8 7 7 5 4 3 3 2 2 3 3 2 1 1 1 1 1 1 2 2
8 8 7 6 6 5 4 5 6 5 5 5 6 8 10 12 13 11 9 8 11 12 12 13 12 12 12 13 13 13 12 12 11 10 9 9 9 8 7 6 6 6 6 6 5 5 5 4 4 4 4 4 4 4 3 3 3 2 3 5 8 9 10 11 10 8 8 8 6 4 4 3 2 2 2 2 2 1 1 2 3 3 2 3 3
8 8 7 6 5 5 5 6 6 6 6 6 7 9 10 11 14 15 12 9 10 12 14 14 13 12 13 13 13 13 12 11 10 9 8 9 8 7 6 6 6 7 8 8 7 6 4 4 3 3 4 4 4 4 4 4 4 4 6 8 10 10 11 11 10 8 7 8 6 4 4 3 3 2 1 2 1 1 2 3 4 5 4 4 4
8 8 7 6 6 6 6 6 7 6 7 8 8 9 11 11 14 15 15 12 10 12 13 13 13 12 12 13 12 12 11 10 9 9 8 8 7 6 6 6 7 8 8 8 8 7 5 4 3 3 3 2 3 3 4 5 5 7 8 8 9 10 11 11 9 7 7 7 6 4 4 4 3 1 1 2 2 2 3 4 5 5 5 4 4
9 8 8 7 7 8 7 7 7 7 7 9 9 10 11 12 13 15 15 14 12 12 12 11 11 11 11 12 12 12 11 10 10 9 8 8 6 6 7 7 8 9 9 9 8 7 6 5 3 2 1 1 2 3 5 6 7 8 8 8 8 10 12 11 8 7 7 7 6 5 4 4 4 2 2 3 3 3 4 4 5 5 5 4 5
9 9 9 9 9 9 8 8 7 7 8 10 11 11 11 12 13 14 14 15 14 13 12 11 11 11 11 12 12 12 11 10 10 9 8 8 7 8 9 10 10 10 9 9 8 7 6 4 3 1 0 2 4 5 7 8 8 8 8 8 8 10 11 10 8 7 7 7 6 5 4 4 4 2 3 3 3 3 3 3 4 5 5 5 6
9 10 11 10 9 10 10 9 8 7 8 10 11 11 11 12 12 13 14 15 14 14 14 13 13 12 12 12 11 11 10 10 9 9 9 8 9 10 10 10 9 9 8 8 7 6 5 3 2 1 2 4 5 6 8 9 9 9 8 8 9 9 10 9 7 6 6 7 5 3 3 3 2 2 1 1 2 3 2 3 4 5 6 6 7
10 11 11 11 10 10 10 10 10 9 9 10 10 10 11 12 13 13 14 14 14 14 14 14 13 12 12 12 11 10 10 10 10 10 9 10 10 10 9 8 8 8 8 7 7 5 4 3 3 3 4 5 6 6 7 9 9 9 8 8 9 8 8 8 6 5 5 5 3 2 2 2 2 2 1 1 1 3 4 4 5 6 7 7 8
11 11 12 11 10 10 10 10 11 11 11 11 11 12 13 14 13 12 13 14 13 13 14 13 13 12 11 11 10 10 10 10 11 10 11 10 9 8 7 7 7 7 7 7 6 5 4 4 5 6 7 8 8 7 7 7 7 8 8 8 8 7 7 6 5 4 4 4 3 3 3 3 3 2 2 1 1 2 4 5 5 6 7 8 9
12 12 12 11 10 11 10 11 12 12 12 13 13 13 14 14 14 13 13 12 12 13 12 12 12 11 11 10 10 10 11 11 11 11 10 9 7 6 6 6 6 6 6 6 5 5 5 6 7 8 9 9 9 8 6 5 6 6 7 7 6 6 5 4 3 3 4 4 5 5 5 4 3 2 2 1 2 3 4 4 5 6 7 8 9
13 13 13 12 11 11 11 12 13 13 14 14 14 14 14 14 14 13 12 11 11 11 11 10 10 10 10 10 10 11 11 11 11 10 8 6 5 5 5 5 5 5 5 5 5 6 6 7 8 9 9 9 9 8 6 5 5 6 6 5 4 3 2 2 3 4 5 6 6 7 6 5 4 3 3 3 4 4 5 6 6 7 7 8 8
13 14 14 12 11 11 13 13 14 14 14 15 15 14 14 14 13 12 11 10 10 10 10 9 9 10 10 11 11 11 10 10 9 7 5 5 5 4 4 5 6 5 5 5 5 6 6 7 8 9 10 10 8 8 6 5 4 5 5 4 3 2 1 2 3 3 4 5 6 6 6 5 4 3 3 4 4 5 6 6 7 7 7 7 7
15 16 15 13 12 13 14 14 14 14 15 15 15 14 14 13 12 11 10 10 9 9 9 9 9 9 9 10 10 10 9 8 6 5 4 3 3 4 4 5 6 5 5 5 6 6 6 7 8 9 10 10 9 7 5 5 4 5 4 3 2 1 1 2 2 3 3 4 4 4 4 4 4 4 4 4 5 6 6 6 6 6 6 6 5
17 17 16 14 14 14 15 14 14 15 15 15 14 13 13 12 11 10 10 9 8 8 8 8 7 8 8 8 8 8 7 5 4 3 3 2 3 3 4 5 5 4 5 5 5 5 6 6 7 8 10 10 9 6 4 4 4 5 4 3 3 2 2 2 2 2 2 2 3 3 4 4 4 4 5 5 5 6 6 6 6 5 5 5 5
19 18 17 16 16 15 15 14 15 15 15 14 13 12 12 12 11 11 10 8 7 7 6 6 5 6 7 7 7 6 5 4 4 3 2 1 2 3 4 4 4 4 4 4 4 4 5 6 7 8 8 8 6 4 3 2 3 5 4 4 3 3 4 3 3 3 3 3 3 4 4 4 5 5 5 5 5 5 5 5 5 5 5 4 5
20 20 18 17 17 16 15 15 15 15 14 14 12 12 12 12 11 10 9 8 6 6 5 4 4 5 5 6 5 5 4 4 3 2 1 1 1 2 3 3 3 4 4 4 4 4 4 6 8 8 6 4 3 3 3 2 3 4 5 6 6 6 6 6 5 5 4 5 5 5 5 6 6 6 6 5 4 4 3 3 3 3 3 4 5
21 20 19 17 17 16 15 15 15 15 15 13 13 12 11 11 10 9 8 7 6 5 4 3 3 4 4 5 5 4 4 3 2 1 1 0 0 1 2 3 3 3 3 3 3 4 4 5 8 9 5 2 3 3 2 3 3 4 5 7 7 8 8 8 7 6 6 6 6 7 7 7 7 7 7 6 5 4 4 3 3 3 3 4 6
22 21 20 18 17 16 15 15 15 15 15 14 13 12 12 11 10 9 7 6 6 5 4 3 3 3 5 5 4 4 3 3 2 2 1 1 0 1 2 2 3 3 3 3 3 4 4 5 7 7 5 3 2 2 1 3 3 3 4 5 7 7 7 7 7 7 7 7 7 8 8 8 8 8 7 6 5 5 5 5 5 5 5 6 6
23 22 21 19 18 17 16 15 15 15 14 14 14 13 13 12 10 9 8 7 6 5 5 3 2 3 5 6 4 3 3 3 2 2 2 2 1 1 1 2 2 3 3 3 3 4 5 6 7 6 5 3 1 0 0 1 2 2 3 4 5 5 4 5 5 6 6 7 7 7 8 8 8 7 7 6 6 6 6 6 6 6 6 6 6
22 23 21 20 19 18 17 16 15 15 15 14 14 14 13 12 11 10 9 8 7 7 7 5 3 3 5 5 4 3 3 2 2 1 1 2 2 1 0 1 2 3 3 3 3 4 4 5 7 6 4 3 2 1 2 1 2 2 2 3 4 3 3 3 4 5 6 7 7 7 7 8 8 8 7 7 6 6 6 6 6 5 6 5 5
22 23 23 21 21 20 18 17 17 16 16 15 15 15 14 13 12 11 11 10 8 8 9 8 6 5 5 5 5 4 4 3 2 2 1 2 2 1 0 1 2 2 3 3 4 4 5 6 7 7 5 3 2 1 3 2 2 2 0 2 2 2 3 4 5 5 6 7 7 8 8 9 9 9 8 6 6 6 6 6 5 5 5 6 6
21 23 23 23 22 21 20 19 18 18 18 18 17 16 16 15 14 14 13 11 10 10 12 11 9 7 6 6 6 6 5 5 4 3 2 2 3 2 0 1 2 2 2 3 4 4 5 6 6 6 5 4 2 1 1 1 1 1 0 2 2 3 4 5 5 6 7 8 8 8 8 8 8 8 7 6 5 6 5 6 6 6 6 6 6
21 23 24 25 23 22 21 20 19 19 19 19 18 18 18 17 16 15 14 13 12 12 13 13 12 11 10 9 9 8 7 6 5 4 3 4 3 2 1 1 1 2 3 3 3 4 4 5 5 5 5 5 4 3 1 1 0 0 1 2 3 4 5 5 5 5 6 7 8 8 7 7 7 6 6 6 7 7 7 7 7 7 8 8 8
22 23 24 25 24 23 22 20 20 20 19 19 19 19 19 17 16 14 13 13 12 13 13 13 13 12 11 11 10 10 9 7 6 5 4 4 4 3 2 2 2 2 3 3 2 3 3 4 5 5 5 5 5 4 1 1 1 0 1 2 2 3 3 3 4 4 4 7 7 6 5 5 6 7 8 9 10 10 9 9 9 9 10 11 11
22 23 24 25 24 24 23 21 21 20 20 20 19 19 18 16 15 13 13 13 12 12 13 13 12 11 10 10 10 10 9 8 7 6 5 5 4 4 3 3 2 3 3 2 1 2 2 4 6 6 5 5 5 5 3 1 1 1 1 1 0 1 1 3 6 4 4 6 5 3 3 5 7 8 9 10 11 10 8 8 9 9 10 11 12
23 24 25 25 25 24 23 22 22 21 21 20 19 18 17 16 16 14 14 14 13 13 14 13 12 11 9 9 9 10 10 9 8 7 6 5 5 5 4 3 2 3 2 1 1 1 2 3 5 6 6 6 5 5 5 3 1 1 1 0 0 1 1 3 5 3 3 5 3 3 2 3 5 5 6 7 9 8 5 5 7 8 9 10 11
25 27 27 26 25 24 23 23 23 22 21 20 19 19 18 17 17 16 16 16 15 15 16 15 13 12 10 8 8 9 10 10 9 8 7 6 5 5 5 4 3 2 2 1 1 0 1 2 4 5 6 7 5 4 4 5 4 3 3 1 1 1 1 2 2 2 4 4 4 3 2 5 5 3 4 6 7 7 4 5 6 7 8 9 9
27 28 27 26 25 24 24 24 24 23 22 21 20 20 19 18 18 18 18 18 18 17 17 16 14 12 10 8 8 8 9 11 11 10 8 7 6 5 5 5 4 3 2 2 1 1 1 1 3 4 5 6 5 4 5 4 4 4 5 4 2 1 2 1 0 1 3 2 4 3 2 5 5 3 6 7 7 7 5 6 7 8 8 8 8
27 27 27 26 26 26 25 25 24 23 22 22 21 21 21 19 18 19 20 20 20 18 16 16 15 14 11 10 9 8 9 10 11 11 10 8 7 6 5 5 5 4 3 2 1 1 2 1 2 2 3 4 4 5 6 5 4 4 6 6 5 2 1 2 1 1 0 1 4 4 5 8 6 4 7 8 8 7 6 8 9 8 7 8 9
27 28 28 27 27 27 27 26 25 23 23 23 22 22 21 19 18 19 20 20 19 17 16 16 15 14 13 12 10 9 9 9 10 11 11 9 7 6 6 6 5 5 5 4 2 2 2 2 1 1 1 3 4 4 5 5 5 5 6 6 5 4 2 2 2 1 1 0 2 2 6 10 8 7 8 9 10 8 7 9 8 8 8 9 10
27 28 28 28 28 28 28 27 26 25 24 23 23 21 20 19 18 19 21 20 19 17 16 16 16 15 14 13 12 11 10 10 11 11 10 9 8 7 7 8 6 6 6 5 4 3 3 3 2 2 2 2 3 3 3 4 4 4 5 5 5 5 3 2 2 2 2 1 1 2 5 7 7 8 10 11 11 9 8 8 8 8 9 10 10
26 27 27 27 28 28 29 29 28 26 25 24 23 22 20 19 19 19 20 20 19 18 17 17 17 16 15 14 13 12 11 11 12 11 10 9 8 7 8 8 8 7 6 5 5 4 3 4 3 3 2 2 2 2 2 2 2 3 4 4 4 4 3 3 4 4 3 2 2 3 5 6 6 8 10 12 11 9 9 9 8 9 10 10 11
Wind_Direction
161 157 157 148 147 148 148 142 124 120 113 105 101 99 110 119 118 115 115 114 114 114 114 112 108 105 104 104 106 108 108 107 107 108 110 109 107 105 102 99 97 97 98 101 103 102 101 100 98 98 101 102 102 99 93 93 93 94 96 95 93 94 94 93 95 97 97 95 95 95 93 94 94 94 94 95 96 97 98 98 97 96 95 95 96
155 155 156 149 146 147 146 134 120 117 112 109 103 100 106 116 121 120 118 114 114 115 112 109 108 108 107 109 112 112 112 111 110 111 112 112 109 107 104 101 99 99 101 104 103 101 101 100 99 101 103 104 102 99 96 94 90 92 97 97 95 95 95 95 96 98 99 96 97 98 95 94 94 94 93 93 94 94 96 94 93 93 95 95 95
149 153 153 150 148 145 141 127 120 118 115 112 106 106 106 110 119 122 120 116 116 114 112 110 111 111 110 112 113 114 114 112 111 112 114 114 112 110 107 106 103 102 105 105 101 98 98 100 102 103 101 100 98 98 101 100 94 90 90 93 95 94 94 96 97 98 99 99 101 101 100 97 94 94 93 93 93 93 95 93 92 92 94 95 95
148 151 151 149 146 142 136 127 122 117 118 115 110 112 108 107 117 122 120 118 116 113 113 113 116 116 112 109 108 111 110 110 111 113 115 115 114 112 110 107 104 103 103 102 101 98 96 99 102 100 99 99 96 96 98 98 97 93 87 86 91 93 93 96 98 99 98 101 104 103 102 100 96 95 94 93 93 94 93 92 92 93 95 94 93
148 148 148 146 141 141 136 130 120 114 116 110 112 115 116 113 117 124 123 118 115 120 126 122 120 115 111 112 114 111 110 112 113 114 115 115 114 113 112 107 103 103 103 103 103 102 102 102 102 99 100 100 97 96 95 95 96 96 94 88 85 88 92 94 96 98 99 103 104 103 102 101 98 96 94 92 91 92 91 90 91 92 93 92 91
150 147 148 147 141 142 136 130 125 129 121 114 121 123 125 121 122 128 122 115 124 138 134 125 117 115 120 127 123 114 113 116 115 116 117 114 112 113 113 108 104 104 105 106 106 107 108 106 102 99 100 98 96 97 94 94 95 97 97 94 89 88 92 95 96 101 106 107 105 104 102 99 96 92 91 92 91 91 92 92 93 93 93 93 94
150 147 151 150 145 141 134 135 140 143 134 133 137 132 130 123 128 129 119 115 142 153 132 125 124 128 135 129 121 118 118 119 119 119 118 114 110 111 110 107 103 102 103 106 108 108 108 105 99 98 100 98 97 98 97 96 95 95 97 98 97 95 95 97 101 107 110 107 105 102 100 98 95 92 91 93 93 92 93 93 93 93 93 93 93
151 151 154 151 146 144 143 145 148 150 146 148 143 135 132 126 127 123 126 127 149 153 134 135 136 135 134 127 123 122 123 123 122 120 120 115 110 110 108 107 104 103 103 104 106 108 108 104 101 100 101 100 100 99 98 97 97 96 95 95 97 98 98 100 103 106 107 105 104 103 103 101 99 99 96 94 93 93 93 93 93 92 91 92 93
154 158 156 153 150 151 156 156 156 158 155 153 145 139 133 130 126 118 126 129 141 144 138 144 137 133 129 129 129 126 130 126 118 121 123 115 113 112 107 106 105 104 103 103 104 107 108 106 105 102 101 102 101 98 96 95 96 96 94 94 95 97 100 102 104 105 105 104 105 105 104 102 101 100 97 93 89 90 92 93 93 92 93 95 96
156 160 158 156 153 155 159 160 162 159 159 157 151 145 135 134 133 126 121 125 142 135 131 140 133 134 131 132 132 131 136 128 120 127 124 115 116 115 108 106 104 105 105 104 104 105 106 105 106 105 104 102 97 95 94 92 92 93 93 93 93 95 99 103 106 107 108 108 108 105 103 100 98 95 93 91 87 87 89 92 93 93 95 95 94
158 159 157 156 153 155 159 161 159 156 162 160 160 152 137 143 145 135 125 126 141 128 126 140 130 133 134 134 135 133 133 127 129 131 121 113 113 114 112 108 105 106 107 106 106 109 108 105 106 107 108 99 93 93 92 90 91 92 94 94 91 89 92 98 104 107 109 113 113 110 108 103 97 94 93 90 89 89 91 95 95 96 94 90 88
159 159 154 155 153 153 158 159 153 150 158 160 172 157 132 144 150 135 133 133 136 130 137 144 130 132 136 135 134 132 128 127 132 127 117 110 108 109 110 109 108 109 111 111 112 115 113 109 109 109 105 95 92 95 93 90 92 93 93 92 85 83 83 85 92 101 108 116 119 119 116 107 102 99 96 93 92 93 95 97 93 92 88 85 84
157 158 155 156 154 153 154 152 151 147 151 158 173 161 129 135 155 136 136 143 137 131 137 144 139 137 135 131 129 131 130 131 133 121 110 105 104 104 103 104 107 110 112 113 113 114 112 111 114 113 100 91 90 95 96 91 92 93 91 86 78 78 77 75 79 89 104 120 124 125 124 117 112 105 99 97 96 99 101 102 98 96 92 88 86
154 157 156 155 151 150 149 148 151 148 150 153 158 159 130 126 161 146 136 148 140 127 131 142 145 138 135 134 136 137 135 138 131 115 105 101 101 101 100 102 103 105 110 112 111 109 113 115 115 112 100 92 89 94 96 93 96 97 90 81 73 70 61 59 62 68 88 113 129 134 136 133 124 113 109 107 103 103 100 104 108 110 102 90 88
154 153 149 148 149 149 147 146 148 146 145 145 142 142 127 126 164 157 137 142 137 129 131 140 144 141 141 142 147 143 139 138 126 113 104 100 101 102 103 103 102 101 102 105 104 107 120 123 115 112 104 93 88 94 100 99 103 101 92 83 76 62 41 39 38 38 49 86 131 146 150 151 137 123 123 118 108 101 97 103 111 117 116 109 102
151 148 146 148 150 150 147 148 147 141 136 139 133 126 122 130 158 157 136 136 133 136 138 143 147 147 148 148 150 142 137 133 122 115 106 101 102 102 102 103 105 105 103 106 109 116 126 124 116 113 107 100 95 96 100 101 104 97 91 85 73 52 26 24 19 13 9 3 304 186 184 180 155 141 152 150 139 135 133 149 150 140 145 150 143
151 151 151 147 147 147 147 147 138 130 130 143 138 129 124 130 148 150 138 136 135 140 140 143 145 146 150 150 144 134 130 125 118 112 103 100 100 99 99 101 106 109 113 119 124 128 131 128 119 113 112 117 114 104 101 103 108 97 84 70 51 29 4 3 0 355 352 335 303 256 238 228 181 164 176 177 171 171 164 166 146 132 146 166 179
153 156 151 146 149 147 149 146 130 129 140 148 140 129 123 125 137 145 142 138 136 138 138 137 137 142 149 143 134 129 123 116 112 106 99 98 96 95 94 95 101 109 119 124 127 131 136 137 125 119 125 133 130 117 110 105 116 118 88 32 8 356 340 338 334 331 340 333 303 275 269 259 206 172 178 183 174 176 167 160 170 179 224 237 231
153 156 152 150 152 148 153 143 129 135 147 140 134 126 116 115 124 140 139 135 134 135 138 137 136 141 145 138 131 126 116 107 104 100 97 98 95 94 90 89 96 109 123 125 127 132 139 143 132 128 137 146 145 132 121 115 128 142 105 352 344 338 323 319 313 308 322 331 313 290 284 264 218 178 184 196 173 181 188 189 216 213 232 298 292
150 156 153 153 151 152 156 137 127 133 142 129 124 121 112 111 116 122 125 127 127 130 134 132 132 136 137 134 128 122 112 105 104 103 103 100 95 92 86 87 94 104 116 122 129 134 139 142 137 134 144 155 161 161 162 171 168 167 281 328 332 325 312 312 312 303 311 325 319 303 291 272 229 195 199 214 183 192 228 220 308 318 315 335 329
151 155 154 156 152 154 151 131 126 126 131 122 116 116 111 115 117 116 121 124 123 127 129 127 130 133 132 129 124 119 113 111 113 112 108 100 94 89 85 85 86 88 93 99 108 116 124 130 133 138 152 168 179 186 193 203 209 236 277 304 316 315 310 311 314 308 308 317 320 311 294 282 244 220 209 230 206 195 300 336 333 334 318 313 316
154 158 156 160 158 153 142 132 130 126 125 122 122 119 116 120 119 120 126 129 131 130 124 126 131 130 128 127 124 119 117 119 120 115 107 100 94 89 88 84 79 80 82 85 89 93 99 113 129 143 163 182 192 199 210 221 238 262 278 296 309 312 311 313 318 314 309 314 320 307 290 282 256 245 231 267 269 252 308 308 307 309 296 297 314
162 163 160 163 162 153 141 139 135 130 124 123 126 118 117 119 118 123 127 129 128 121 116 120 124 123 127 127 124 121 120 123 120 117 113 105 99 97 93 84 81 81 82 83 83 83 82 88 104 127 156 188 207 224 238 248 262 274 287 299 309 315 318 319 318 317 314 314 317 302 289 285 271 262 255 294 319 299 297 296 290 291 288 299 317
168 163 160 158 154 150 144 143 138 133 128 126 126 120 120 121 120 124 125 124 120 115 114 117 117 120 127 126 125 124 125 128 128 128 126 119 116 109 94 85 82 79 78 75 73 72 73 81 92 112 152 232 256 271 276 279 283 287 295 303 310 317 323 324 319 315 317 317 318 305 294 290 279 261 253 284 302 289 290 299 296 292 295 304 310
167 159 159 153 146 148 144 142 140 135 130 130 128 125 125 122 120 121 122 124 124 126 127 126 124 125 127 128 131 134 138 141 140 139 133 124 115 104 94 87 82 75 71 66 64 65 70 80 92 105 310 295 293 298 296 295 294 293 295 298 305 313 321 327 323 318 319 321 321 309 301 299 290 279 266 272 287 287 287 300 300 298 303 304 305
163 162 161 152 147 149 145 143 142 135 128 129 128 127 127 123 122 124 126 128 131 134 133 132 132 131 132 137 143 145 148 149 144 138 127 117 110 102 93 85 74 66 61 57 57 59 62 62 51 16 341 325 315 308 302 298 294 292 292 295 302 311 320 328 332 328 324 324 321 317 320 326 332 334 293 255 275 293 309 312 300 298 305 308 307
164 166 163 155 152 151 149 149 146 140 133 132 131 131 131 131 130 131 132 132 134 134 132 134 135 137 141 145 149 149 147 144 137 130 122 116 109 99 87 73 58 50 47 48 51 52 49 35 18 4 357 350 341 324 306 296 291 290 290 294 300 308 318 327 335 337 334 333 332 346 11 27 43 58 69 91 284 291 301 306 303 306 312 315 312
165 165 163 158 158 156 154 153 150 147 141 137 137 135 133 134 134 135 133 132 133 134 136 138 140 142 143 144 144 143 141 137 132 127 121 115 104 90 74 59 47 38 37 40 40 39 27 16 9 3 3 359 355 343 317 299 292 291 291 292 296 307 317 325 339 352 356 6 25 41 56 67 78 87 86 69 348 305 305 309 313 319 323 326 323
169 166 165 164 163 161 158 157 154 151 145 141 140 137 136 136 135 136 133 132 134 134 136 136 136 136 134 135 134 134 134 132 128 124 119 109 95 80 63 52 43 35 38 39 35 31 20 11 5 359 358 355 354 347 328 306 295 293 294 293 298 310 318 329 359 21 33 45 57 61 64 71 75 72 57 25 4 347 336 334 334 335 336 337 335
174 169 169 169 165 164 163 161 157 153 150 147 145 143 141 140 139 139 137 136 135 133 132 132 133 133 132 131 130 130 129 128 128 125 118 102 86 72 57 49 43 44 49 46 37 27 16 9 1 354 350 348 347 339 323 309 299 293 294 297 305 316 325 5 32 44 55 60 61 63 61 59 56 40 22 10 4 358 352 350 349 348 347 347 347
176 172 173 172 168 169 168 164 160 157 156 153 151 150 148 146 144 143 141 140 141 139 138 138 139 136 133 131 131 131 131 131 131 125 112 95 80 67 57 52 49 54 51 40 30 18 9 1 352 349 345 340 337 326 313 305 292 283 287 298 309 314 2 35 42 47 56 59 59 61 54 46 38 25 16 9 5 2 358 357 356 356 356 357 1
181 178 177 175 173 175 171 167 165 163 161 159 156 154 154 153 151 148 145 145 145 143 141 141 139 135 133 133 134 135 135 133 127 118 102 85 73 65 64 59 51 45 37 30 22 8 0 355 348 343 337 331 327 318 308 299 280 270 273 291 307 313 1 14 29 34 43 50 47 48 42 32 20 11 6 7 8 7 6 7 6 7 9 10 14
184 182 181 179 178 178 173 171 171 168 166 165 161 158 159 160 157 152 149 147 144 141 139 138 136 133 131 133 136 137 136 132 123 113 99 80 65 65 66 60 49 36 28 25 18 4 354 350 341 334 327 321 319 318 316 301 275 263 261 275 296 308 322 341 1 0 359 10 14 15 15 8 4 0 0 3 6 11 13 14 16 17 18 19 17
184 183 184 182 181 179 176 176 175 172 171 170 167 163 163 163 160 156 152 148 145 143 139 141 142 138 136 137 140 141 140 136 127 119 103 85 64 65 64 54 43 29 24 21 10 359 352 342 334 332 325 315 311 315 319 297 262 260 262 274 289 302 306 315 322 323 330 333 334 342 347 346 348 352 356 0 2 8 15 19 23 22 20 17 12
185 184 185 182 181 180 179 180 179 177 176 174 171 167 167 165 162 160 155 151 149 146 145 151 156 152 152 151 149 147 146 145 139 132 111 91 73 70 64 47 35 19 11 4 351 349 349 342 339 338 333 326 326 321 301 268 260 267 273 281 290 296 296 300 302 303 312 317 320 325 331 337 341 345 348 351 351 352 354 1 14 17 16 9 2
186 184 184 182 182 182 181 182 182 181 180 177 173 172 173 170 167 163 157 154 150 144 146 157 168 171 175 170 163 158 159 171 178 187 227 217 99 67 59 41 24 11 0 347 339 344 346 346 344 341 350 12 346 331 293 262 270 279 283 287 291 292 291 291 289 292 300 305 315 322 327 333 335 338 340 340 338 332 325 319 320 331 335 339 344
187 184 182 182 183 182 182 182 181 181 180 177 176 177 176 171 167 163 160 161 158 154 160 168 173 182 189 185 178 176 190 204 208 218 212 202 207 55 53 39 20 13 11 356 352 355 351 354 351 348 10 33 339 333 302 258 267 302 306 300 298 295 293 290 286 291 295 303 316 325 332 334 333 335 333 330 331 331 326 316 311 313 315 320 329
187 185 183 182 182 181 182 181 178 178 177 176 177 176 175 173 171 171 174 177 179 179 179 173 162 185 191 189 188 190 201 201 203 216 196 213 234 91 51 30 17 13 15 11 10 4 356 359 3 8 28 51 86 99 353 245 257 307 336 337 335 329 316 305 298 299 301 310 320 328 336 337 335 336 332 328 330 338 341 335 326 324 324 324 327
187 186 185 184 184 183 182 181 179 177 176 176 177 177 178 180 182 187 190 195 200 195 189 186 184 199 193 186 191 195 195 194 209 233 220 234 236 183 117 26 14 3 8 19 17 357 357 3 13 29 40 51 85 176 193 213 251 261 322 356 10 19 3 337 321 315 312 316 320 324 329 331 331 333 332 329 329 340 350 349 342 340 342 339 335
188 187 187 188 188 186 185 185 183 180 179 181 182 184 187 192 197 201 203 206 211 205 196 192 188 194 192 186 193 200 207 220 240 259 264 239 219 207 202 30 11 2 8 23 21 4 6 8 16 37 44 39 55 189 215 239 247 208 276 345 359 5 348 335 328 328 326 322 320 318 320 325 327 327 324 323 325 333 346 350 346 346 349 350 347
190 191 190 190 191 189 189 188 187 185 185 187 188 190 194 198 204 208 210 211 215 211 202 199 199 204 207 207 214 223 232 242 254 258 250 236 221 209 220 2 358 8 10 11 15 13 13 7 10 35 46 43 49 47 223 216 207 176 59 323 317 323 326 328 328 330 331 328 323 320 324 327 324 320 318 319 326 330 334 338 337 338 341 344 346
189 193 193 192 192 193 191 189 188 190 191 190 190 193 196 199 203 207 212 217 220 216 210 210 214 219 224 229 234 240 244 246 252 254 241 237 239 236 274 310 329 350 345 343 1 14 12 11 16 36 49 50 47 35 74 143 127 114 65 335 328 326 316 318 321 318 323 323 317 314 322 327 319 314 319 322 325 326 324 323 323 327 330 332 334
189 192 193 192 193 195 194 192 191 193 193 193 193 195 197 200 205 211 216 222 225 221 221 223 224 225 229 234 237 241 243 242 246 253 245 240 246 254 278 292 296 313 319 320 346 17 17 26 33 40 51 53 45 37 40 222 281 144 61 355 353 346 321 322 329 321 323 321 313 304 302 308 311 310 316 321 321 320 318 316 318 323 325 327 328
188 190 192 192 194 197 197 195 194 195 196 196 196 197 200 203 211 220 221 221 222 221 225 227 223 222 226 232 236 236 235 235 240 248 246 245 252 259 272 279 286 299 298 300 334 19 28 40 43 42 48 49 45 40 33 301 251 203 63 26 82 17 334 331 338 332 337 335 329 324 307 301 308 308 307 314 317 317 315 315 320 327 329 329 329
187 190 192 193 196 198 200 199 196 195 198 200 201 203 205 207 213 219 216 215 218 219 221 221 217 218 226 233 235 234 231 228 232 242 246 249 256 262 266 266 283 293 270 277 334 6 28 37 40 38 42 45 42 47 57 62 91 152 55 128 350 6 242 304 332 332 350 3 18 32 23 351 334 321 315 324 328 324 322 329 330 331 331 330 332
189 192 193 195 198 201 201 201 199 198 201 206 208 208 207 209 211 210 206 206 210 215 218 216 216 220 229 237 237 233 228 224 227 238 243 245 253 260 260 261 272 279 259 282 318 267 38 33 35 34 40 43 40 60 78 73 72 58 37 19 315 292 245 309 339 318 338 13 43 45 40 14 2 0 358 356 355 352 349 349 345 342 340 338 342
191 193 195 198 201 203 202 201 203 204 208 212 212 208 206 209 212 211 210 209 210 216 220 219 219 222 228 235 237 233 227 223 226 235 239 239 249 256 255 258 256 250 251 267 291 242 207 34 30 32 40 43 42 58 66 60 61 51 41 37 13 280 260 319 231 309 335 349 7 9 2 2 5 18 13 6 4 3 359 355 349 349 353 354 353
192 193 195 199 202 203 202 202 206 210 212 213 209 206 206 207 210 212 213 214 217 220 220 218 219 222 227 231 234 236 230 224 226 232 235 235 247 255 253 256 246 233 241 253 275 259 229 264 12 30 36 33 37 47 47 44 52 50 45 44 37 34 350 331 301 330 69 265 336 350 346 353 3 19 13 8 4 360 356 357 354 355 5 5 356
193 193 195 197 200 202 203 204 207 210 210 208 206 206 209 209 210 211 211 213 218 220 217 217 218 220 227 231 232 235 233 227 226 227 226 230 244 254 254 256 250 238 239 244 261 266 234 238 300 351 358 7 18 31 36 41 54 53 43 40 38 34 19 6 351 341 80 212 305 314 333 345 351 357 3 4 4 1 357 1 6 14 20 14 3
194 195 195 196 198 201 202 203 204 206 206 206 206 208 210 212 212 211 209 210 212 215 216 216 217 220 227 230 231 233 232 229 225 219 219 228 242 253 254 254 253 247 244 241 249 263 237 226 258 290 294 330 349 358 14 32 46 44 30 29 32 25 7 359 353 333 327 315 278 280 318 336 334 340 358 4 1 0 1 7 16 21 20 16 11
194 195 194 195 197 200 202 202 204 206 208 209 210 211 212 214 215 213 212 212 212 214 215 216 218 221 225 229 232 234 233 228 222 220 224 233 241 249 254 251 248 245 244 245 250 260 247 235 252 264 273 309 323 314 318 357 21 23 17 16 22 22 9 339 336 329 311 298 295 294 317 331 316 322 351 5 7 13 18 17 21 24 20 16 15